Track STARLINK-4169 now! 10-day predictions STARLINK-4169 is classified as:
1 53280U 22086AQ 22230.91667824 -.00015228 00000-0 -10420-3 0 9998 2 53280 53.2188 277.7005 0002313 18.9589 160.1680 15.73211912 4620